This is the latest recevied weather packets stored in our database for station/object SR3WXD. If no packets are shown the sender has not sent any weather packets the latest 10 day(s).
| Time | Temp. | Humidity | Pressure | Rain* | Wind** | Luminosity | Snow |
|---|---|---|---|---|---|---|---|
| 1777406116 | 3.33° C | 50% | 999.5 hPa | 0 mm | - | - | - |
| 1777404316 | 4.44° C | 49% | 999.5 hPa | 0 mm | - | - | - |
| 1777402516 | 5.56° C | 44% | 999.2 hPa | 0 mm | - | - | - |
| 1777400716 | 7.78° C | 34% | 999.2 hPa | 0 mm | - | - | - |
| 1777398916 | 9.44° C | 30% | 999 hPa | 0 mm | - | - | - |
| 1777397116 | 11.11° C | 26% | 999 hPa | 0 mm | - | - | - |
| 1777395316 | 11.67° C | 26% | 998.7 hPa | 0 mm | - | - | - |
| 1777393516 | 12.78° C | 22% | 999 hPa | 0 mm | - | - | - |
| 1777391716 | 13.33° C | 20% | 999 hPa | 0 mm | - | - | - |
| 1777377134 | 17.78° C | 20% | 1000.2 hPa | 0 mm | - | - | - |
| 1777375334 | 17.22° C | 20% | 1000.4 hPa | 0 mm | - | - | - |
| 1777373534 | 17.22° C | 20% | 1000.5 hPa | 0 mm | - | - | - |
| 1777371734 | 15.56° C | 20% | 1000.2 hPa | 0 mm | - | - | - |
| 1777369933 | 15° C | 20% | 1000.5 hPa | 0 mm | - | - | - |
| 1777368133 | 14.44° C | 20% | 1000.5 hPa | 0 mm | - | - | - |
| 1777366564 | 13.89° C | 22% | 1000.7 hPa | 0 mm | - | - | - |
| 1777364764 | 12.78° C | 22% | 1000.7 hPa | 0 mm | - | - | - |
| 1777322060 | 9.44° C | 42% | 996.2 hPa | 0 mm | - | - | - |
| 1777320260 | 9.44° C | 43% | 996 hPa | 0 mm | - | - | - |
| 1777318460 | 8.89° C | 45% | 996 hPa | 0 mm | - | - | - |
| 1777316659 | 9.44° C | 43% | 995.7 hPa | 0 mm | - | - | - |
| 1777314850 | 10.56° C | 40% | 995.7 hPa | 0 mm | - | - | - |
| 1777313050 | 12.22° C | 32% | 995.5 hPa | 0 mm | - | - | - |
| 1777311250 | 13.89° C | 31% | 995.5 hPa | 0 mm | - | - | - |
| 1777309450 | 15° C | 28% | 995.4 hPa | 0 mm | - | - | - |
* Rain latest hour (hover to see other rain measurements)
** Current wind speed in m/s (hover to see current wind gust speed)